Volver al catálogo

COSMOS 397 DEB

ActivoLEO
NORAD 5144·DEBRIS·🇷🇺 Russia

Lanzado Feb 25, 1971 desde Baikonur Cosmodrome

Loading…

Próximos Pases (próximas 24 horas)

TLE

ActualizadoSource: Space-Track

Época: Sep 14, 2026, 03:33 UTC

1 05144U 71015AG  26257.14809731  .00003611  00000-0  71784-3 0  9994
2 05144  65.7141 138.0289 0451770 340.3839  18.0330 14.14409170710874

Sigue COSMOS 397 DEB en tiempo real con AllMySat

Download on the App Store